Regional Weather Roundup
Issued by NWS

Home | Current Version | Previous Version | Text Only | Print | Product List | Glossary On
Versions: 1 2 3 4 5 6 7 8 9 10 11 12 13 14 15 16 17 18 19 20 21 22 23 24 25 26 27 28 29 30 31 32 33 34 35 36 37 38 39 40 41 42 43 44 45 46 47 48 49 50
000
ASUS43 KTOP 231708
RWRKS

WEATHER ROUNDUP FOR KANSAS
NATIONAL WEATHER SERVICE GOODLAND KS
1200 PM CDT WED JUL 23 2014

NOTE:  "FAIR" INDICATES FEW OR NO CLOUDS BELOW 12,000 FEET WITH NO
SIGNIFICANT WEATHER AND/OR OBSTRUCTIONS TO VISIBILITY.

KSZ001>006-013>018-027>032-041>047-231800-
NORTHWEST KANSAS

CITY           SKY/WX    TMP DP  RH WIND       PRES   REMARKS
GOODLAND       CLOUDY    67  63  87 E22G28    30.38S
HAYS           MOSUNNY   81  64  57 NE10      30.26R
HILL CITY      CLOUDY    73  62  68 N22G30    30.34R
RUSSELL        MOSUNNY   82  67  60 VRB3      30.22S
$$

KSZ061>065-074>080-084>089-231800-
SOUTHWEST KANSAS

CITY           SKY/WX    TMP DP  RH WIND       PRES   REMARKS
DODGE CITY     SUNNY     87  68  52 VRB5      30.24S
ELKHART          N/A     89  65  44 S8          N/A
GARDEN CITY    SUNNY     87  67  51 E8        30.26R
GREAT BEND     SUNNY     81  70  69 E8        30.21S
LIBERAL        SUNNY     91  64  40 SW8       30.25S
PRATT          PTSUNNY   81  70  69 E13       30.23R
$$

KSZ066>073-081>083-090>101-231800-
SOUTHEAST KANSAS

CITY           SKY/WX    TMP DP  RH WIND       PRES   REMARKS
CHANUTE        LGT RAIN  70  67  90 NW15G25   30.17F FOG
COFFEYVILLE    TSTM      73  69  87 N29G51    30.14R FOG
HUTCHINSON     CLOUDY    83  66  56 VRB3      30.17F
MEDICINE LODGE   N/A     86  75  69 NE13      30.17R HX  95
NEWTON         CLOUDY    73  63  68 E6        30.19R
PARSONS        TSTM      71  67  87 NW17G32   30.19R FOG
WICHITA INTL   CLOUDY    80  68  66 E8        30.14F
WICHITA JABRA  CLOUDY    75  67  76 E6        30.15F
WICHITA MCCONL CLOUDY    77  70  79 E7        30.15F
WINFIELD       PTSUNNY   79  71  76 NE9       30.15F
$$

KSZ007>012-019>026-033>040-048>060-102>105-231800-
NORTHEAST KANSAS

CITY           SKY/WX    TMP DP  RH WIND       PRES   REMARKS
CONCORDIA      PTSUNNY   79  64  60 NE12      30.21S
EMPORIA        CLOUDY    72  69  90 E8        30.15S
LAWRENCE       PTSUNNY   86  69  56 N14       30.18R
MANHATTAN      CLOUDY    83  66  56 E15       30.16S
MARYSVILLE     SUNNY     82  63  51 NE12G17   30.20S
OLATHE IND     MOSUNNY   86  65  49 N10       30.18R
OLATHE EXE     PTSUNNY   85  65  51 N13       30.16S
SALINA         PTSUNNY   81  65  58 N13       30.20R
TOPEKA BILLARD PTSUNNY   83  67  58 N9        30.18S
TOPEKA FORBES  PTSUNNY   84  66  54 N9        30.18F
$$



USA.gov is the U.S. government's official web portal to all federal, state and local government web resources and services.